Location: Ferma
(41.9500°N, 44.5167°E)
Time: 11:51:55
(UTC+00:00)

Cosmos 220 Rocket - Pass Details

Date: 06 June 2022
Orbit: 572 x 614 km, 74.0° (Epoch: 03 July)

Event Time Altitude Azimuth Distance (km) Brightness Sun altitude
Exits shadow 19:19:57 17° 233° (SW) 1,484 5.9 -21.3°
Maximum altitude 19:22:45 38° 295° (WNW) 884 5.2 -21.5°
Drops below altitude 10° 19:26:42 10° 4° (N) 1,891 7.4 -21.8°
Sets 19:29:03 0° 13° (NNE) 2,799 8.3 -22.0°
